Location: Igls
(47.2333°N, 11.4167°E)
Time: 12:53:21
(UTC+00:00)

Daily predictions for brighter satellites

Satellite Brightness Start Highest point End
(mag) Time Altitude Azimuth Time Altitude Azimuth Time Altitude Azimuth
Cosmos 1606 2.6 19:26:54 10° N 19:30:41 75° E 19:34:28 10° SSE
Nadezhda 4 Rocket 4.2 19:25:56 10° SSE 19:31:54 55° E 19:37:59 10° NNE
Cosmos 2333 Rocket 4.5 19:29:52 10° N 19:32:05 12° NNE 19:34:17 10° NE
Cosmos 1242 Rocket 4.3 19:29:58 10° NNW 19:33:14 33° W 19:36:26 10° SSW
Landsat 7 3.9 19:33:13 10° SSE 19:37:55 66° ENE 19:42:39 10° N
Spot 2 Rocket 4.5 19:34:58 10° SE 19:39:29 33° ENE 19:44:00 10° N
SPOT 3 Rocket 3.7 19:34:29 10° SSE 19:39:37 62° ENE 19:44:48 10° N
ISS -3.8 19:36:18 10° WNW 19:39:42 88° SSW 19:42:58 11° ESE
Cosmos 1825 4.1 19:37:09 10° SW 19:40:34 34° WNW 19:44:02 10° N
IGS 5A 3.4 19:37:00 10° SSE 19:41:08 78° ENE 19:45:18 10° N
BREEZE-M DEB (TANK) 3.6 19:31:27 10° W 19:43:47 75° N 19:47:19 10° ENE
Cosmos 1980 Rocket 2.4 19:38:58 10° NNW 19:44:34 71° WSW 19:50:11 10° SSE
Cosmos 2369 4.4 19:39:21 10° NW 19:44:51 53° WSW 19:50:18 10° S
Cosmos 2058 4.0 19:41:16 10° SSW 19:45:21 50° WNW 19:49:28 10° N
MetOp-B 4.3 19:40:48 10° SSE 19:46:04 62° ENE 19:51:22 10° N
CZ-2C R/B 4.3 19:42:58 10° NNE 19:47:08 35° E 19:51:13 10° SSE
Cosmos 2221 3.4 19:45:23 10° NNW 19:49:34 51° W 19:53:45 10° S
RESURS DK-1 2.7 19:46:54 10° SW 19:51:02 70° WNW 19:55:12 10° NNE
USA 245 4.1 19:47:56 10° SE 19:52:51 48° ENE 19:56:52 10° N
Meteor 2-15 4.5 19:48:20 10° N 19:54:24 70° ENE 20:00:26 10° SSE
BREEZE-M DEB (TANK) 3.4 19:51:17 10° SW 19:54:46 56° SE 20:06:21 10° ENE
Cosmos 2322 Rocket 3.1 19:50:03 10° NNW 19:55:16 37° NE 19:59:58 12° ESE
Cosmos 304 Rocket 3.9 19:55:05 10° NNW 19:59:52 63° ENE 20:03:55 14° SE
BREEZE-M DEB (TANK) 3.6 19:57:29 10° WNW 20:00:41 71° SSW 20:09:24 12° ESE
Cosmos 1933 3.5 19:57:09 10° N 20:01:09 56° ENE 20:04:32 14° SSE
Cosmos 1538 Rocket 3.9 19:56:32 10° SSW 20:01:45 80° ESE 20:06:57 10° NNE
Resurs 01 Rocket 2.0 19:59:25 10° S 20:03:48 64° WSW 20:08:15 10° NNW
ERS-2 2.9 20:01:48 10° N 20:05:23 55° WNW 20:08:57 10° SSW
Cosmos 2151 2.9 20:01:51 10° S 20:06:03 71° E 20:10:19 10° NNE
Cosmos 2098 Rocket 2.9 20:04:19 10° SSW 20:07:22 62° WNW 20:11:01 10° N
Gbstr 26 Del rocket 2.7 20:06:05 10° WNW 20:09:49 81° NNE 20:12:57 16° ESE
Meteor 2-3 Rocket 3.8 20:05:41 10° S 20:11:14 62° E 20:16:53 10° NNE
Meteor 2-15 Rocket 4.4 20:06:28 10° N 20:12:34 76° E 20:18:12 12° SSE
CARTOSAT-1 3.8 20:09:29 16° SSE 20:12:49 56° ENE 20:17:04 10° N
Cosmos 2219 Rocket 4.2 20:12:39 10° N 20:16:20 17° NE 20:20:00 10° E
Ariane Rocket 4.4 20:13:44 10° SSW 20:18:21 35° W 20:22:59 10° NNW
SL-16 R/B 2.3 20:18:17 10° NNW 20:23:59 72° ENE 20:28:03 19° SE
Cosmos 1782 2.8 20:23:36 10° N 20:27:37 65° E 20:30:03 22° SSE
Cosmos 371 Rocket 4.3 20:23:53 10° NW 20:28:25 41° WSW 20:32:51 10° S
ARIANE 5 R/B 2.7 20:26:51 20° SSE 20:29:55 70° ENE 20:34:22 10° N
Cosmos 1271 Rocket 2.9 20:30:12 10° NNW 20:34:12 77° W 20:36:55 20° S
SPOT 1/Viking Rocket 4.0 20:31:18 11° S 20:36:09 58° W 20:41:19 10° NNW
USA 276 2.1 20:34:20 10° WNW 20:37:28 65° SSW 20:38:32 36° SE
Cosmos 2195 Rocket 4.5 20:32:16 10° S 20:38:23 85° W 20:44:32 10° N
BREEZE-M DEB (TANK) 3.1 20:35:20 10° W 20:38:31 52° SSW 20:43:14 20° SE
Cosmos 1766 Rocket 3.6 20:37:42 21° SSE 20:40:28 59° E 20:44:47 10° NNE
Cosmos 1151 Rocket 3.0 20:36:52 10° N 20:41:14 73° E 20:43:40 26° SSE
ATLAS 5 CENTAUR R/B 4.0 20:38:45 10° NNW 20:42:49 22° NNE 20:47:25 10° E
Cosmos 1328 Rocket 3.7 20:41:02 10° N 20:45:28 62° ENE 20:47:40 28° SSE
ATLAS 2AS CENTAUR R/B 4.3 20:38:40 10° WSW 20:46:06 43° NW 20:53:20 10° NE
Cosmos 923 Rocket 4.0 20:42:47 10° SSW 20:48:08 89° ESE 20:53:31 10° NNE
Terra 1.9 20:47:56 27° SSE 20:50:29 66° ENE 20:55:14 10° N
ATLAS 3B R/B 3.8 20:44:35 10° NW 20:51:05 39° WSW 20:56:42 15° S
SPOT 5 2.6 20:50:48 26° SSE 20:53:11 85° WSW 20:57:35 10° NNW
USA 267 3.8 20:48:03 10° ENE 20:53:52 33° SE 20:59:01 13° S
Cosmos 1092 Rocket 4.5 20:50:22 10° SSW 20:56:32 61° WNW 21:02:49 10° N
Cosmos 2082 Rocket 4.2 20:52:11 10° WSW 20:57:05 30° NW 21:02:02 10° NNE
Cosmos 2056 Rocket 3.6 20:54:07 10° NNW 20:59:30 71° ENE 21:02:09 30° SE
NOSS 2-1 (C) 3.1 21:00:51 44° ESE 21:00:51 44° ESE 21:03:50 10° NE
BREEZE-M DEB (TANK) 2.2 21:01:06 10° W 21:03:08 49° N 21:03:13 49° N
ERS-1 Rocket 3.1 21:00:35 24° S 21:03:36 70° WSW 21:08:39 10° NNW
SL-27 R/B 2.7 21:06:23 45° ESE 21:06:37 46° ESE 21:10:06 10° NNE
Meteor 2-21 4.4 21:02:38 21° S 21:06:59 78° E 21:13:10 10° NNE
Cosmos 2360 Rocket 2.2 21:01:42 10° NNW 21:07:21 72° ENE 21:10:08 31° SE
NOSS 2-1 (D) 2.8 21:08:18 55° SE 21:08:19 55° SE 21:11:36 10° NE
Cosmos 2026 Rocket 4.5 21:03:16 10° SSW 21:09:31 61° WNW 21:15:45 10° N
GP-B 4.2 21:08:33 10° NNW 21:12:44 41° W 21:16:13 14° SSW
ISS -1.7 21:13:51 10° W 21:15:56 17° SW 21:15:56 17° SW
Cosmos 1833 4.4 21:14:09 29° S 21:16:52 53° ESE 21:22:30 10° NE
Cosmos 2333 Rocket 2.8 21:12:27 10° NNW 21:17:54 46° NE 21:20:38 27° ESE
Meteor 1-10 Rocket 4.1 21:14:48 10° N 21:20:24 80° E 21:22:51 35° SSE
Cosmos 1371 Rocket 4.2 21:15:36 10° NNW 21:20:58 71° WSW 21:23:22 33° S
Cosmos 1812 3.1 21:18:02 10° NNW 21:21:51 59° W 21:23:04 38° SSW
Cosmos 2112 Rocket 4.2 21:17:49 12° SSW 21:22:48 73° WNW 21:28:05 10° NNE
Cosmos 1680 Rocket 3.9 21:18:05 10° SSW 21:23:19 63° WNW 21:28:34 10° NNE
Cosmos 1500 Rocket 3.9 21:22:34 41° ESE 21:23:21 46° E 21:27:36 10° NNE
Cosmos 220 Rocket 4.5 21:20:07 10° NNW 21:24:21 52° WSW 21:25:50 35° SSW
Okean 3 Rocket 4.4 21:24:58 18° SW 21:28:05 48° WNW 21:32:29 10° N
Cosmos 2322 4.2 21:22:39 10° NNW 21:28:16 52° ENE 21:30:49 30° ESE
USA 234 3.8 21:22:42 12° E 21:28:45 56° NNE 21:35:08 10° NW
COBE Rocket 4.5 21:29:38 34° ESE 21:30:56 42° ENE 21:35:20 10° N
Cosmos 292 Rocket 3.7 21:27:26 10° NNW 21:32:14 83° ENE 21:33:40 46° SSE
Cosmos 2237 Rocket 4.1 21:33:54 10° N 21:38:14 22° NE 21:42:14 11° E
Meteor 2-16 Rocket 4.3 21:35:24 31° S 21:38:31 86° E 21:44:39 10° N
Cosmos 2322 Rocket 3.0 21:34:07 10° NW 21:39:22 41° WSW 21:41:46 27° SSW
Cosmos 1408 Rocket 3.8 21:40:12 35° SSW 21:41:54 64° W 21:46:13 10° N
Cosmos 1743 Rocket 3.5 21:42:22 55° SSE 21:43:14 72° E 21:47:40 10° NNE
Cosmos 2285 Rocket 4.2 21:38:49 10° NNW 21:45:04 59° ENE 21:47:42 34° SE
IRIDIUM 106 4.4 21:41:39 10° N 21:46:52 67° E 21:48:18 46° SSE
Cosmos 2315 Rocket 4.0 21:43:30 10° N 21:49:50 73° E 21:52:17 40° SSE
Sich 1 3.7 21:51:50 39° E 21:51:55 39° E 21:55:59 10° NNE
Cosmos 2084 3.9 21:48:52 13° WSW 21:52:25 56° NW 21:56:34 10° NE
Gbstr 26 Del rocket 4.5 21:53:12 10° W 21:55:27 21° WSW 21:55:27 21° WSW
Cosmos 2266 Rocket 4.0 21:53:29 33° SSW 21:56:27 81° W 22:02:43 10° N
Cosmos 1048 Rocket 4.2 21:59:25 46° SE 21:59:56 48° ESE 22:04:51 10° NNE
Cosmos 2219 Rocket 2.1 21:55:39 10° NNW 22:01:16 77° ENE 22:02:58 46° SE
Cosmos 2228 Rocket 2.9 22:01:04 10° N 22:05:31 86° W 22:06:05 68° S
H-2A R/B 4.4 22:01:38 10° N 22:05:39 44° WNW 22:07:14 30° WSW
NOSS 2-1 (E) 4.1 22:05:22 29° W 22:06:32 41° NW 22:09:54 10° NNE
SL-16 R/B 4.1 22:03:32 10° NW 22:07:28 19° W 22:09:55 15° SW
NOSS 3-1 (C) 4.1 22:03:09 10° NW 22:10:39 77° SW 22:14:30 37° SSE
Cosmos 2333 4.2 22:05:14 10° NNW 22:10:48 66° WSW 22:12:13 48° S
COSMOS 2455 2.7 22:09:10 41° SSW 22:11:20 74° ESE 22:17:21 10° NE
COSMOS 2428 2.7 22:10:17 10° NNW 22:16:01 82° ENE 22:17:35 50° SE
Cosmos 1602 4.2 22:17:48 51° ENE 22:17:48 51° ENE 22:21:07 10° NNE
Cosmos 1515 3.8 22:17:21 10° N 22:20:48 66° NE 22:20:48 66° NE
Spot 4 3.7 22:21:45 63° S 22:22:30 80° WSW 22:27:22 10° NNW
Cosmos 1862 Rocket 4.4 22:18:35 10° N 22:22:38 37° ENE 22:22:56 36° E
USA 229 DEB 3.9 22:17:32 10° NW 22:24:53 88° NE 22:28:16 38° SE
USA 229 3.9 22:17:38 10° NW 22:24:59 88° NE 22:28:23 38° SE
ATLAS 5 CENTAUR R/B 2.4 22:22:47 10° NW 22:28:15 72° NE 22:30:39 39° ESE
Terra 4.0 22:26:49 13° WSW 22:28:42 16° W 22:31:40 10° NW
COSMOS 2487 3.2 22:31:49 48° NNW 22:31:49 48° NNW 22:34:40 10° NNE
Cosmos 1452 Rocket 3.7 22:26:49 10° NNW 22:31:58 57° WSW 22:32:49 50° SW
Cosmos 1707 Rocket 3.4 22:27:47 10° N 22:32:09 82° E 22:32:18 80° ESE
ALOS 2 2.4 22:33:57 77° ESE 22:34:11 80° ENE 22:38:36 10° NNW
USA 267 3.2 22:30:45 10° NE 22:37:19 84° NNW 22:43:53 10° WSW
Cosmos 2219 4.5 22:40:38 26° ESE 22:40:44 26° ESE 22:45:22 10° NE
Nadezhda 1 Rocket 4.4 22:36:08 10° N 22:42:25 54° ENE 22:44:26 40° SE
Cosmos 1666 4.1 22:44:25 29° ENE 22:44:25 29° ENE 22:47:08 10° NNE
NOSS 3-1 (A) 4.0 22:37:51 10° NW 22:45:21 76° SW 22:48:48 40° SSE
SL-08 ROCKET BODY 4.4 22:44:13 53° SSE 22:45:44 77° E 22:51:53 10° NNE
Cosmos 1805 Rocket 4.5 22:49:13 37° WSW 22:50:00 41° WNW 22:54:13 10° N
Cosmos 2360 Rocket 3.9 22:46:51 10° NW 22:50:43 19° W 22:51:53 18° WSW
Cosmos 1110 Rocket 4.0 22:52:46 10° NNW 22:58:03 65° WSW 22:58:40 59° SW
Cosmos 1980 3.8 22:54:13 10° NNW 22:59:54 73° ENE 23:01:19 51° SE
Cosmos 2333 Rocket 3.2 22:57:02 10° NW 23:01:59 32° WSW 23:02:38 31° WSW
Cosmos 1331 Rocket 4.0 22:58:17 10° NNW 23:03:30 64° WSW 23:03:58 60° SW
USA 234 3.2 23:10:02 48° SSE 23:11:43 63° SW 23:18:14 10° WNW
Nimbus 7 Rocket 4.3 23:06:31 10° NNE 23:12:34 87° ESE 23:14:02 55° SSW
Cosmos 1340 Rocket 3.7 23:13:35 39° ENE 23:13:35 39° ENE 23:16:41 10° NNE
NOSS 0 Rocket 3.9 23:08:37 10° NNW 23:14:48 66° WSW 23:16:01 54° SSW
Cosmos 2297 Rocket 2.3 23:17:11 55° SE 23:17:49 58° ESE 23:23:23 10° NNE
Okean 1-7 3.5 23:14:41 10° N 23:18:49 48° ENE 23:18:54 48° E
Lacrosse 5 2.2 23:21:59 49° ESE 23:21:59 49° ESE 23:26:19 10° ENE
Cosmos 2237 Rocket 2.1 23:17:18 10° NNW 23:23:00 83° WSW 23:24:02 61° SSE
Cosmos 2084 Rocket 3.5 23:20:23 10° NW 23:24:07 69° WNW 23:24:07 69° WNW
Cosmos 2242 Rocket 3.8 23:20:36 10° N 23:24:57 57° ENE 23:25:08 56° E
NOSS 2-2 (E) 4.4 23:20:31 10° NW 23:25:56 88° SW 23:28:32 42° SE
Cosmos 1500 4.2 23:26:57 39° WNW 23:26:57 39° WNW 23:30:20 10° N
Cosmos 1470 Rocket 3.5 23:29:03 72° WNW 23:29:03 72° WNW 23:33:19 10° N
Cosmos 2227 Rocket 2.4 23:28:53 52° SE 23:29:31 54° ESE 23:35:02 10° NE
Cosmos 909 Rocket 4.4 23:31:45 46° SSE 23:33:13 55° ESE 23:40:35 10° NE
Cosmos 1633 Rocket 3.9 23:33:06 38° W 23:33:25 38° WNW 23:37:30 10° N
Cosmos 1933 Rocket 3.5 23:35:35 87° E 23:35:35 87° E 23:40:04 10° N
Meteor 1-11 Rocket 3.9 23:41:19 51° SE 23:42:19 59° E 23:47:45 10° NNE
Cosmos 2219 Rocket 3.9 23:40:56 10° WNW 23:44:32 18° W 23:44:40 18° W
Cosmos 2263 Rocket 4.2 23:46:36 14° ESE 23:47:59 15° E 23:51:05 10° ENE
STPSAT 2 (USA 217) 4.5 23:43:36 10° NNW 23:48:13 85° WSW 23:48:16 84° SW
NOSS 2-2 (C) 4.3 23:44:47 10° NW 23:50:09 75° SW 23:52:23 44° SSE
SL-16 R/B 2.5 23:44:44 10° NNW 23:50:22 62° ENE 23:52:42 35° SE
Cosmos 1992 Rocket 4.0 23:45:41 10° NNW 23:50:57 76° ENE 23:52:05 54° SE
Cosmos 1269 Rocket 4.1 23:50:05 54° WSW 23:51:06 69° WNW 23:56:24 10° NNE
PSLV R/B 3.7 23:46:56 10° N 23:51:43 73° WNW 23:52:12 66° WSW
Resurs 1-4 Rocket 3.7 23:49:30 10° NE 23:53:42 23° E 23:55:13 21° ESE
